Flag for Saint Lucia Weather past 2 weeks in Vieux Fort, Saint Lucia

Now
77 °F

Rain showers. Passing clouds.


Feels Like: 79 °F
Forecast: 78 / 83 °F
Wind: 28 mph from East

Location: Hewanorra International Airport

Current Time: Mar 6, 2015 at 6:11:58 AM

Latest Report: Mar 6, 2015 at 5:00 AM


Visibility: N/A

Pressure: 29.98 "Hg

Humidity: 74%

Dew point: 68 °F

Location of Vieux FortLocation

Historic Weather in Vieux Fort — Graph

°F

Vieux Fort temperature yesterday

Maximum temperature yesterday: 84 °F (at 12:00 PM)
Minimum temperature yesterday: 77 °F (at 3:00 AM)
Average temperature yesterday: 80 °F

Past Weeks' High & Low Weather Summary

 TemperatureHumidityPressure
High84 °F (Feb 19, 1:00 PM)100% (Mar 3, 11:00 AM)30.07 "Hg (Mar 3, 11:00 AM)
Low73 °F (Feb 23, 3:00 AM)48% (Mar 5, 2:00 PM)29.89 "Hg (Feb 19, 4:00 PM)
Average80 °F74%29.99 "Hg
* Reported Feb 19 5:00 AM — Mar 6 5:00 AM, Vieux Fort, Weather by CustomWeather, © 2015

Note: Actual official high and low records may vary slightly from our data, if they occured in-between our weather recording intervals... More about our weather records

Advertising

Vieux Fort weather history for previous 24 hours

 ConditionsComfort  
Time TempWeatherWind HumidityBarometerVisibility
5:00 AM
Fri, Mar 6
77 °FRain showers. Passing clouds.28 mph74%29.98 "HgN/A
4:00 AM79 °FPassing clouds.25 mph74%29.98 "HgN/A
3:00 AM77 °FPassing clouds.26 mph74%29.98 "HgN/A
2:00 AM77 °FPassing clouds.25 mph79%29.98 "HgN/A
12:00 AM77 °FPassing clouds.23 mph79%30.04 "HgN/A
11:00 PM
Thu, Mar 5
79 °FPassing clouds.25 mph65%30.04 "HgN/A
5:00 PM77 °FPassing clouds.23 mph89%29.98 "HgN/A
4:00 PM82 °FPassing clouds.22 mph62%29.95 "HgN/A
3:00 PM84 °FPassing clouds.24 mph58%29.95 "HgN/A
2:00 PM84 °FPassing clouds.21 mph48%29.98 "HgN/A
1:00 PM84 °FPassing clouds.25 mph55%30.01 "HgN/A
12:00 PM84 °FPassing clouds.25 mph51%30.01 "HgN/A
11:00 AM82 °FPassing clouds.25 mph58%30.04 "HgN/A
10:00 AM82 °FPassing clouds.22 mph55%30.07 "HgN/A
9:00 AM81 °FScattered clouds.21 mph62%30.04 "HgN/A
7:00 AM79 °FScattered clouds.23 mph65%30.01 "HgN/A
6:00 AM79 °FPassing clouds.24 mph70%30.01 "HgN/A
Weather by CustomWeather, © 2015

See weather overviewHow to use our weather pages